Regional Weather Roundup
Issued by NWS State College, PA

Home | Current Version | Previous Version | Text Only | Print | Product List | Glossary Off
Versions: 1 2 3 4 5 6 7 8 9 10 11 12 13 14 15 16 17 18 19 20 21 22 23 24 25 26 27 28 29 30 31 32 33 34 35 36 37 38 39 40 41 42 43 44 45 46 47 48 49 50

000
ASUS41 KCTP 250810
RWRCTP

REGIONAL WEATHER ROUNDUP
NATIONAL WEATHER SERVICE STATE COLLEGE PA
400 AM EDT SAT APR 25 2015

Note: "fair" indicates few or no clouds below 12,000 feet with no
significant weather and/or obstructions to visibility.

* = STATION THAT DOES NOT REPORT PRECIPITATION /E.G. RAIN...SNOW...ETC/
    THUNDER OR FOG.

PAZ002>004-007>009-013>016-020>023-029>032-250900-
WESTERN PENNSYLVANIA

CITY           SKY/WX    TMP DP  RH WIND       PRES   REMARKS
ERIE           CLOUDY    33  22  63 CALM      29.98F
MEADVILLE      MOCLDY    34  19  54 CALM      29.95S
FRANKLIN*      MOCLDY    28  18  64 SW3       29.96S
NEW CASTLE     FAIR      34  29  82 CALM      29.99S
BEAVER COUNTY  NOT AVBL
BUTLER*        CLOUDY    34  25  69 CALM      29.97F
PITTSBURGH INT CLOUDY    40  20  44 E5        29.96F
PITTSBURGH     CLOUDY    39  14  36 E6        29.95F
INDIANA*       CLOUDY    30  21  69 CALM      29.99F
LATROBE        CLOUDY    32  28  86 CALM      29.99S
WASHINGTON CO* CLOUDY    39  19  45 NE7       29.97F
$$

PAZ004>006-010>012-017>019-024>028-033>037-041-042-045-046-049>053-250900-
CENTRAL PENNSYLVANIA

CITY           SKY/WX    TMP DP  RH WIND       PRES   REMARKS
BRADFORD       PTCLDY    27  18  69 CALM      29.91S
DUBOIS         PTCLDY    33  16  49 W3        29.93S
CLEARFIELD     PTCLDY    29  19  66 CALM      29.95R
JOHNSTOWN      PTCLDY    32  13  45 CALM      29.92F
ALTOONA        CLEAR     33  15  47 N5        29.95F
STATE COLLEGE  PTCLDY    33  17  53 CALM      29.95S
WILLIAMSPORT   CLEAR     34  21  59 W7        29.95S
SELINSGROVE    CLEAR     32  22  66 CALM      29.97S
FT INDIANTOWN  CLEAR     37  18  47 W7        29.96S
CAPITAL CITY   CLEAR     35  17  47 S3        29.97S
HARRISBURG     CLEAR     35  21  56 NW5       29.97R
YORK           CLEAR     28  21  75 CALM      29.97R
$$

PAZ038>040-043-044-047-048-054-055-060>062-067>071-250900-
EASTERN PENNSYLVANIA

CITY           SKY/WX    TMP DP  RH WIND       PRES   REMARKS
SCRANTON       CLEAR     33  22  63 NW5       29.92R
MOUNT POCONO   CLEAR     29  20  69 NW8       29.85R
ALLENTOWN      CLEAR     32  21  64 SW5       29.94S
QUAKERTOWN*    SUNNY     28  23  80 NW3       29.94F
READING        CLEAR     37  20  50 W5        29.95F
LANCASTER      CLEAR     34  21  59 N7        29.96S
COATESVILLE    SUNNY     36  19  51 CALM      29.95F
POTTSTOWN      CLEAR     33  22  63 CALM      29.97S
BLUE BELL      CLEAR     36  27  69 CALM      29.94F
DOYLESTOWN     CLEAR     32  21  64 CALM      29.93F
WILLOW GROVE   NOT AVBL
NORTH PHILA    CLEAR     36  21  54 CALM      29.97S
PHILADELPHIA   CLEAR     41  21  44 W5        29.97F
$$


USA.gov is the U.S. government's official web portal to all federal, state and local government web resources and services.